NOAA 16 DEB, 42390

Orbit data source: Space-Track

NOAA 16 DEB, 42390 is space debris in SSO originally from a launch on Thu, 21 Sep 2000 UTC launched from the Air Force Western Test Range (AFWTR). Debris objects in space refer to the collection of defunct objects orbiting the Earth. Examples of debris include non-operational satellites, rocket bodies, and fragments generated from explosions, collisions, or faulty payload assembly.

Loading next visibility...
NOAA 16 DEB details
Identifier
42390, 2000-055SJ
Orbit
SSO
Last TLE update22 hours ago
Origin
Flag of USNOAA (US)
ManufacturerUnknown
MissionSpacecraft
Bus & MotorUnknown
MassUnknown
Launch date (UTC)
2000-09-21 (24 years ago)
Launch vehicleUnknown
Launch site
Air Force Western Test Range (AFWTR)
Object type
Payload
Rocket body
Debris
Shape & HBRUnknown
Radar Cross SectionSmall (<0.1 m²)

Expand to show TLE details & history

TLE from 22 hours ago
0 NOAA 16 DEB
1 42390U 00055SJ  24338.49231077  .00007262  00000-0  31128-2 0  9995
2 42390  98.6616  48.3303 0014750  20.4333 339.7434 14.25038944454386
Epoch: 2024-12-03T11:48Z
Definitive object data (Epoch: 2024-12-03T11:48:55.65Z)
Latitude0.00002°
Longitude158.29738°
Altitude801.34 km
Speed7.458 km/s
True Right ascension03h 13m 19s
True Declination0° 00' 00"
Sunlit
Object was in full shadow at TLE epoch
Visualization TLE readout
Latitude59.95657°
Longitude-5.59052°
Altitude820.538 km
Speed7.447 km/s
Apparent Right ascension18h 33m 41s
Apparent Declination15° 59' 30"
Sunlit
Object is in daylight
Visualization observer readout
Local Sidereal Time08:11:03
Azimuth27.127° NE
Elevation-29.67°
Doppler factor1
Orbital elements
Apogee altitude816.107 km
Perigee altitude794.915 km
Semi-major axis7,183.648 km
Eccentricity0.001475
Inclination98.6616°
RAAN48.3303°
Arg. of periapsis20.4333°
True anomaly339.68478°
Mean anomaly339.7434°
Eccentric anomaly339.7141°
Mean motion3.56472 °/min
BSTAR0.0031128
Orbital period100.99 mins
Loading maneuver chart data...
Loading historical data...
Loading historical data...
Loading historical data...
Loading historical data...
Loading historical data...
Loading historical data...
Loading historical data...

NOAA 16 DEB Visibility forecast

Observer location: undefined°, undefined

Span
Click to sort rows by Start time (UTC) header in descending order
Start Az.
Max El. time (UTC)
Max El. Az.
Max El.
End time (UTC)
End Az.
9 mins2024-12-04 17:02:38.083Z32.767° NE2024-12-04 17:07:38.083Z105.706° ESE29.521°2024-12-04 17:11:38.083Z160.059° S
7 mins2024-12-04 18:43:38.083Z343.352° N2024-12-04 18:46:38.083Z300.402° NW25.603°2024-12-04 18:50:38.083Z240.828° WSW
8 mins2024-12-05 04:23:38.083Z140.437° SSE2024-12-05 04:27:38.083Z52.645° ENE37.447°2024-12-05 04:31:38.083Z358.689° N
5 mins2024-12-05 06:05:38.083Z243.994° WSW2024-12-05 06:07:38.083Z272.408° WNW17.45°2024-12-05 06:10:38.083Z308.821° NW
|